[[{"header":{"parameterUnit":"m.s-1","parameterCategory":1,"la1":30.2991,"la2":30.254,"lo1":-89.0895,"lo2":-89.0444,"dy":0.0017,"dx":0.0017,"nx":28,"ny":28,"refTime":"2025-03-17T21:00:00:Z","depth":0,"parameterNumber":2,"parameterNumberName":"U-component_of_WINDS"},"data":[0,0,0,0,0,0,0,0,0,0,0,0,0,0,0,0,0,0,0,0,0,0,0,0,0,0,0,0,0,0,0,0,0,0,0,0,0,0,0,0,0,0,0,0,0,0,0,0,0,0,0,0,0,0,0,0,0,0,0.6199,0.6199,0,0.6225,0.6225,0.6226,0.6226,0.6226,0.6225,0.6225,0.6252,0.6253,0.6254,0,0,0,0,0,0,0,0,0,0,0,0,0,0.615,0.6151,0.6199,0.6199,0.62,0.6225,0.6225,0.6226,0.6226,0.6226,0.6225,0.6225,0.6251,0.6253,0.6254,0,0,0,0,0,0,0,0,0,0,0,0,0,0.6173,0.6151,0.6199,0.6203,0.6204,0.6225,0.6225,0.6226,0.6226,0.6226,0.6225,0.6225,0.6251,0.6252,0.6254,0.6273,0,0,0.6259,0.6259,0,0,0,0,0,0,0,0,0.6172,0.6175,0.6202,0.6203,0.6203,0.6222,0.6218,0.6242,0.6226,0.6218,0.6225,0.6225,0.6242,0.6244,0.625,0.6274,0.6276,0.6259,0.626,0.626,0.6261,0,0,0,0,0,0,0,0.617,0.6174,0.6209,0.6202,0.6203,0.6204,0.6206,0.6222,0.6232,0.6218,0.6218,0.6221,0.6242,0.6249,0.6251,0.6276,0.6259,0.626,0.6261,0.6262,0.6318,0.6319,0,0,0,0,0,0,0.6168,0.6173,0.6209,0.621,0.6186,0.6205,0.6208,0.6216,0.6232,0.6234,0.6222,0.6221,0.6247,0.6249,0.6252,0.6276,0.626,0.6262,0.6263,0.6318,0.6318,0.6319,0,0,0,0,0,0,0.6167,0.6171,0.6207,0.6191,0.6196,0.6206,0.6216,0.6217,0.6224,0.6235,0.6237,0.6227,0.6246,0.625,0.6268,0.6277,0.6262,0.6264,0.6317,0.6318,0.6319,0.6324,0,0,0,0,0,0,0.6165,0.6171,0.6178,0.6192,0.6197,0.6223,0.6216,0.6218,0.6226,0.6226,0.624,0.6242,0.6246,0.6266,0.627,0.6279,0.6265,0.6316,0.6317,0.6318,0.6323,0.6325,0.6326,0,0,0,0,0,0.6164,0.6178,0.6178,0.6183,0.6206,0.6224,0.6227,0.6232,0.6227,0.6234,0.6242,0.6241,0.6275,0.6268,0.6272,0.6282,0.6316,0.6317,0.6318,0.6322,0.6324,0.6326,0,0,0,0,0,0,0.6165,0.618,0.618,0.6199,0.621,0.6224,0.6233,0.6234,0.6246,0.6245,0.6251,0.6254,0.6272,0.6279,0.627,0.6302,0.6295,0.6297,0.6296,0.6299,0.63,0.6298,0.6266,0,0,0,0,0,0.6167,0.618,0.6193,0.6208,0.6214,0.6223,0.623,0.6233,0.6245,0.6249,0.6258,0.6269,0.6282,0.6291,0.6304,0.6324,0.6327,0.6333,0.6335,0.6336,0.6338,0.6349,0.6352,0.6323,0.6323,0.6323,0,0,0.6173,0.6182,0.619,0.6209,0.6218,0.6231,0.6226,0.624,0.625,0.6251,0.6269,0.6276,0.6289,0.6309,0.6318,0.6315,0.6346,0.6338,0.6339,0.634,0.6351,0.6354,0.6356,0.6324,0.6324,0.6324,0,0,0.6189,0.6198,0.6212,0.6221,0.6234,0.624,0.6244,0.6257,0.6262,0.628,0.6281,0.6293,0.6316,0.6325,0.6333,0.6354,0.6354,0.6358,0.6367,0.6378,0.6381,0.6383,0.639,0.6393,0.636,0.636,0.636,0,0.6193,0.6213,0.6219,0.6233,0.6242,0.6244,0.6259,0.6267,0.6284,0.629,0.6287,0.6316,0.6324,0.6346,0.6352,0.6358,0.6362,0.6356,0.638,0.6382,0.6384,0.6391,0.6394,0.6361,0.6361,0.636,0.636,0,0.6219,0.6233,0.6243,0.6259,0.6269,0.6283,0.6291,0.6301,0.6303,0.631,0.6329,0.6339,0.6355,0.636,0.6363,0.6383,0.6381,0.6379,0.6372,0.6387,0.6394,0.6397,0.6361,0.6361,0.6361,0.6361,0,0,0.6235,0.6256,0.6259,0.6267,0.6282,0.6293,0.6308,0.6324,0.6332,0.6344,0.6356,0.6376,0.6375,0.6383,0.6387,0.6397,0.6414,0.6394,0.6394,0.6397,0.6437,0.6438,0.6441,0.6414,0.6415,0.6415,0.6436,0,0.6253,0.6279,0.6285,0.6308,0.6321,0.6324,0.6337,0.6348,0.6355,0.6367,0.6375,0.6389,0.6386,0.6391,0.6401,0.6409,0.6422,0.6408,0.6426,0.6427,0.6422,0.6445,0.6446,0.6465,0.6438,0.6439,0.6439,0,0.6277,0.629,0.6314,0.6328,0.6334,0.6346,0.6361,0.6372,0.6385,0.639,0.64,0.6403,0.6419,0.6413,0.6435,0.6426,0.6434,0.6439,0.644,0.6441,0.6433,0.6446,0.6471,0.6474,0.6444,0.6443,0.6443,0,0.6286,0.631,0.6327,0.6334,0.6351,0.636,0.6367,0.638,0.6389,0.6402,0.6408,0.6423,0.6431,0.6443,0.645,0.6445,0.6472,0.6466,0.6476,0.6476,0.6481,0.6481,0.6507,0.6487,0.6487,0.6487,0.6487,0,0.6305,0.632,0.6332,0.6343,0.6359,0.6367,0.6383,0.6391,0.6402,0.6415,0.6418,0.643,0.6439,0.6452,0.6458,0.6476,0.648,0.6484,0.6485,0.6483,0.6483,0.6488,0.6487,0.6488,0.6488,0.6487,0.6487,0,0.6318,0.6327,0.6346,0.6362,0.6366,0.6377,0.6391,0.6401,0.6409,0.6425,0.6429,0.644,0.6456,0.6465,0.6484,0.6488,0.6508,0.6509,0.6504,0.6504,0.6514,0.6513,0.6544,0.6549,0.6526,0.6526,0.6527,0,0.6329,0.6341,0.6357,0.6366,0.6374,0.6388,0.6398,0.6406,0.6415,0.6432,0.6441,0.6457,0.647,0.6495,0.6505,0.6521,0.6522,0.6532,0.6524,0.6522,0.6522,0.6521,0.6522,0.6533,0.6533,0.6533,0.6533,0,0.6348,0.6352,0.6366,0.6381,0.6392,0.6405,0.6417,0.6424,0.6434,0.6445,0.6461,0.6472,0.6492,0.6508,0.6525,0.6533,0.6535,0.6536,0.6539,0.6537,0.6533,0.6535,0.6507,0.6535,0.6535,0.6535,0.6535,0.6534,0.6361,0.6371,0.6385,0.64,0.641,0.6422,0.6433,0.6442,0.6455,0.6473,0.6477,0.6494,0.6508,0.653,0.6539,0.6553,0.6551,0.6556,0.6557,0.6558,0.6558,0.6532,0.6556,0.6556,0.6556,0.6556,0.6556,0,0.638,0.6389,0.6403,0.642,0.6432,0.6433,0.6447,0.6457,0.6472,0.6485,0.6498,0.6518,0.6533,0.6545,0.6562,0.6571,0.6572,0.6575,0.6574,0.6576,0.6559,0.6554,0.6573,0.6573,0.6573,0.6573,0.6573,0.6573,0.6391,0.6409,0.6414,0.6438,0.6447,0.6464,0.6472,0.6483,0.6493,0.6514,0.6527,0.6535,0.6548,0.6565,0.658,0.6583,0.6589,0.6592,0.6595,0.6579,0.6577,0.6575,0.6571,0.6593,0.6593,0.6611,0.6611,0.6611]},{"header":{"parameterUnit":"m.s-1","parameterCategory":1,"la1":30.2991,"la2":30.254,"lo1":-89.0895,"lo2":-89.0444,"dy":0.0017,"dx":0.0017,"nx":28,"ny":28,"refTime":"2025-03-17T21:00:00:Z","depth":0,"parameterNumber":3,"parameterNumberName":"V-component_of_WINDS"},"data":[0,0,0,0,0,0,0,0,0,0,0,0,0,0,0,0,0,0,0,0,0,0,0,0,0,0,0,0,0,0,0,0,0,0,0,0,0,0,0,0,0,0,0,0,0,0,0,0,0,0,0,0,0,0,0,0,0,0,-3.4364,-3.4365,0,-3.451,-3.4511,-3.4513,-3.4512,-3.451,-3.4508,-3.4507,-3.4655,-3.4661,-3.4667,0,0,0,0,0,0,0,0,0,0,0,0,0,-3.4085,-3.409,-3.4363,-3.4365,-3.4367,-3.4509,-3.4511,-3.4513,-3.4513,-3.451,-3.4508,-3.4506,-3.4653,-3.466,-3.4667,0,0,0,0,0,0,0,0,0,0,0,0,0,-3.4216,-3.4092,-3.4363,-3.4384,-3.4387,-3.4509,-3.4511,-3.4514,-3.4513,-3.451,-3.4507,-3.4505,-3.4651,-3.466,-3.4668,-3.4778,0,0,-3.4694,-3.4698,0,0,0,0,0,0,0,0,-3.4208,-3.4226,-3.4379,-3.4383,-3.4387,-3.449,-3.4468,-3.4602,-3.4514,-3.4465,-3.4507,-3.4503,-3.4603,-3.4615,-3.4649,-3.4785,-3.4792,-3.4695,-3.47,-3.4704,-3.4706,0,0,0,0,0,0,0,-3.4199,-3.422,-3.4421,-3.4381,-3.4386,-3.4386,-3.4402,-3.4493,-3.4548,-3.4469,-3.447,-3.4487,-3.4604,-3.464,-3.4652,-3.4794,-3.4695,-3.4703,-3.4708,-3.4711,-3.5032,-3.5035,0,0,0,0,0,0,-3.4186,-3.4212,-3.4416,-3.4426,-3.4289,-3.4394,-3.4411,-3.4459,-3.4547,-3.4558,-3.4489,-3.4486,-3.4627,-3.4642,-3.4657,-3.4795,-3.4704,-3.4712,-3.4717,-3.5029,-3.5033,-3.5036,0,0,0,0,0,0,-3.418,-3.4204,-3.4411,-3.4319,-3.4345,-3.4401,-3.4456,-3.4464,-3.45,-3.4562,-3.4572,-3.4516,-3.4625,-3.4645,-3.4749,-3.48,-3.4716,-3.4724,-3.5025,-3.503,-3.5034,-3.5069,0,0,0,0,0,0,-3.4172,-3.4202,-3.4244,-3.432,-3.435,-3.45,-3.4459,-3.4469,-3.4515,-3.4513,-3.459,-3.46,-3.4625,-3.4736,-3.4758,-3.481,-3.473,-3.502,-3.5027,-3.5033,-3.5064,-3.5074,-3.5084,0,0,0,0,0,-3.4162,-3.4247,-3.4246,-3.4271,-3.4404,-3.4503,-3.452,-3.4547,-3.4519,-3.4563,-3.4603,-3.4598,-3.479,-3.4747,-3.4771,-3.4827,-3.5017,-3.5025,-3.5032,-3.5059,-3.5072,-3.5084,0,0,0,0,0,0,-3.4175,-3.4257,-3.4257,-3.437,-3.4429,-3.4502,-3.4558,-3.456,-3.4628,-3.4623,-3.4653,-3.467,-3.4775,-3.4811,-3.4761,-3.494,-3.4901,-3.4913,-3.4913,-3.4926,-3.4936,-3.4926,-3.4738,0,0,0,0,0,-3.4191,-3.4264,-3.4332,-3.4425,-3.4455,-3.4501,-3.4545,-3.4561,-3.4624,-3.4649,-3.4696,-3.4757,-3.4832,-3.4881,-3.4952,-3.5068,-3.5087,-3.5119,-3.5129,-3.5137,-3.5148,-3.5215,-3.5231,-3.5061,-3.5061,-3.5061,0,0,-3.4224,-3.4279,-3.4323,-3.4429,-3.4477,-3.4553,-3.4522,-3.4603,-3.466,-3.4661,-3.4763,-3.48,-3.487,-3.4982,-3.5033,-3.5015,-3.5199,-3.5147,-3.5153,-3.516,-3.5224,-3.524,-3.5255,-3.5066,-3.5065,-3.5064,0,0,-3.4325,-3.4373,-3.4456,-3.4506,-3.4579,-3.461,-3.463,-3.4704,-3.4729,-3.4832,-3.4835,-3.4903,-3.503,-3.5081,-3.5123,-3.5246,-3.5245,-3.5268,-3.5322,-3.5387,-3.54,-3.5412,-3.5459,-3.5474,-3.5279,-3.5279,-3.5279,0,-3.4358,-3.4472,-3.4499,-3.4581,-3.4629,-3.4634,-3.472,-3.4766,-3.4859,-3.4892,-3.487,-3.5032,-3.508,-3.5204,-3.5234,-3.5268,-3.5293,-3.526,-3.5396,-3.5409,-3.542,-3.5465,-3.5482,-3.5282,-3.5281,-3.5281,-3.5281,0,-3.451,-3.4589,-3.4648,-3.474,-3.4793,-3.4877,-3.4917,-3.4968,-3.4979,-3.5013,-3.5119,-3.5176,-3.5261,-3.5291,-3.5302,-3.5418,-3.5405,-3.539,-3.5351,-3.5439,-3.5481,-3.5498,-3.5285,-3.5284,-3.5284,-3.5283,0,0,-3.4622,-3.4729,-3.475,-3.4793,-3.4876,-3.4938,-3.5022,-3.5106,-3.5151,-3.5215,-3.5288,-3.5396,-3.5383,-3.5432,-3.5449,-3.5505,-3.5602,-3.5483,-3.5485,-3.5505,-3.5736,-3.5749,-3.5768,-3.5601,-3.5604,-3.5607,-3.5731,0,-3.4734,-3.4884,-3.4912,-3.5043,-3.5119,-3.5125,-3.5199,-3.5258,-3.5292,-3.5361,-3.5397,-3.5475,-3.5451,-3.548,-3.5537,-3.5578,-3.5649,-3.5569,-3.5671,-3.5674,-3.5655,-3.579,-3.5804,-3.5918,-3.5748,-3.5751,-3.5753,0,-3.4883,-3.4953,-3.5093,-3.5168,-3.52,-3.5266,-3.5347,-3.5412,-3.548,-3.5501,-3.5556,-3.5567,-3.5656,-3.5613,-3.5737,-3.5682,-3.5725,-3.5752,-3.5757,-3.5769,-3.572,-3.5808,-3.5955,-3.5973,-3.5778,-3.5776,-3.5774,0,-3.4955,-3.5083,-3.5184,-3.522,-3.531,-3.5356,-3.5396,-3.5461,-3.551,-3.558,-3.5613,-3.5692,-3.5736,-3.5798,-3.5831,-3.5796,-3.5954,-3.5912,-3.5975,-3.5974,-3.6009,-3.6007,-3.6167,-3.6033,-3.6033,-3.6032,-3.6032,0,-3.5077,-3.5163,-3.5218,-3.528,-3.5377,-3.5408,-3.5503,-3.5542,-3.56,-3.5671,-3.568,-3.5746,-3.5785,-3.5857,-3.5883,-3.5983,-3.6002,-3.6023,-3.6029,-3.6023,-3.6021,-3.6053,-3.6047,-3.6037,-3.6036,-3.6035,-3.6034,0,-3.5174,-3.5214,-3.5325,-3.5401,-3.5422,-3.549,-3.5556,-3.5617,-3.5651,-3.5741,-3.5763,-3.5817,-3.5902,-3.5941,-3.6046,-3.6063,-3.6179,-3.6178,-3.6157,-3.6159,-3.6221,-3.6216,-3.641,-3.6438,-3.6282,-3.6284,-3.6285,0,-3.525,-3.5317,-3.5401,-3.5449,-3.549,-3.5567,-3.5619,-3.5652,-3.5705,-3.5789,-3.5841,-3.5927,-3.5998,-3.6134,-3.6183,-3.6264,-3.6267,-3.6329,-3.6279,-3.6272,-3.6271,-3.6267,-3.6275,-3.6339,-3.634,-3.6341,-3.6342,0,-3.5383,-3.54,-3.5473,-3.5555,-3.5616,-3.5682,-3.5746,-3.5785,-3.5829,-3.5888,-3.5977,-3.6031,-3.614,-3.6226,-3.6311,-3.6352,-3.6356,-3.6358,-3.6377,-3.6373,-3.6359,-3.637,-3.6184,-3.6353,-3.6352,-3.6351,-3.6351,-3.635,-3.5473,-3.5534,-3.5603,-3.5686,-3.5738,-3.5798,-3.5861,-3.5903,-3.5978,-3.6069,-3.6084,-3.6179,-3.6247,-3.6361,-3.6406,-3.6481,-3.6466,-3.6493,-3.65,-3.6507,-3.6512,-3.6345,-3.6496,-3.6496,-3.6495,-3.6495,-3.6495,0,-3.5609,-3.5654,-3.573,-3.582,-3.5886,-3.5883,-3.5955,-3.601,-3.6094,-3.6157,-3.6227,-3.633,-3.6414,-3.647,-3.6555,-3.6605,-3.6609,-3.6626,-3.6624,-3.6634,-3.6519,-3.6495,-3.6622,-3.6622,-3.6622,-3.6622,-3.6622,-3.6622,-3.5687,-3.579,-3.5816,-3.5946,-3.5991,-3.6084,-3.6126,-3.6182,-3.6233,-3.6348,-3.6418,-3.6454,-3.6516,-3.6606,-3.6683,-3.6698,-3.673,-3.6748,-3.6762,-3.6655,-3.6642,-3.6629,-3.6607,-3.6754,-3.6755,-3.6871,-3.6872,-3.6873]}]]